Main page
METAR-TAF:

METAR-TAF

Airports :

Calhoun County Airport

Port Lavaca, Texas, United States

latitude: 28-39-14N, longitude: 096-40-52W, elevation: 30 ft

Current weather observation

The report was made 22 minutes ago, at 17:35 UTC
Wind 7 mph from the East/Northeast
Temperature 93°F
Humidity 60%
Pressure 29.94 in. Hg
Visibility: 10 miles
Scattered clouds at a height of 3600 ft

METAR: KPKV 141735Z AUTO 07006KT 10SM SCT036 34/25 A2994 RMK AO2 T03360245

Time: 12:57 (17:57 UTC)


TAF: missing

Weather observations and forecasts of more than 4000 airports (METAR and TAF reports).

The available stations are represented by yellow and red dots on the map.

Hover mouse over dot to see the name of the station.

Then click to see weather observations and forecasts.

To change the map : click on the green buttons with a black cross to zoom in, on the green button with a dash to zoom out, or on the green arrows for adjacent maps.


METAR-TAF: